Location: *
(51.0333°S, 178.4667°E)
Time: 02:29:47
(UTC+00:00)

BREEZE-M DEB (TANK) - Pass Details

Date: 15 November 2019
Orbit: 317 x 17195 km, 49.4° (Epoch: 14 December)

Event Time Altitude Azimuth Distance (km) Brightness Sun altitude
Exits shadow 11:05:44 17° 301° (WNW) 1,513 4.8 -19.8°
Maximum altitude 11:08:32 66° 21° (NNE) 984 3.7 -19.9°
Drops below altitude 10° 11:20:29 10° 100° (E) 5,874 8.0 -20.2°
Sets 11:29:27 0° 100° (E) 9,250 9.1 -20.3°
